Location: Nairn
(57.5833°N, 3.8667°W)
Time: 17:31:51
(UTC+00:00)

S-56A Canister/Altair - Pass Details

Date: 05 December 2020
Orbit: 633 x 2499 km, 38.9° (Epoch: 19 January)

Event Time Altitude Azimuth Distance (km) Brightness Sun altitude
Rises 17:59:32 0° 223° (SW) 6,039 13.1 -17.9°
Reaches altitude 10° 18:04:43 10° 212° (SSW) 4,846 12.2 -18.6°
Maximum altitude 18:14:12 24° 167° (SSE) 3,313 10.7 -19.9°
Enters shadow 18:20:23 14° 125° (SE) 3,556 10.5 -20.7°
Drops below altitude 10° 18:21:43 10° 118° (ESE) 3,762 - -20.9°
Sets 18:25:06 0° 105° (ESE) 4,457 - -21.3°
